カタログに戻る

DMSP 5D-2 F13 DEB

運用中SSO
NORAD 40517·DEBRIS·🇺🇸 United States

打ち上げ Mar 24, 1995 から Vandenberg Space Force Base

Loading…

次のパス (今後24時間)

TLE

最新Source: Space-Track

元期: Sep 13, 2026, 02:56 UTC

1 40517U 95015DD  26256.12289232  .00004422  00000-0  10406-2 0  9992
2 40517  98.5834 311.4824 0017776 213.6405 146.3664 14.54769740598951

AllMySatでDMSP 5D-2 F13 DEBをリアルタイム追跡

Download on the App Store